This is the latest recevied weather packets stored in our database for station/object KB1WCR. If no packets are shown the sender has not sent any weather packets the latest 10 day(s).
| Time | Temp. | Humidity | Pressure | Rain* | Wind** | Luminosity | Snow |
|---|---|---|---|---|---|---|---|
| 1788261606 | 11.67° C | 99% | 1018.4 hPa | 0 mm | - | 36 W/m² | - |
| 1788261304 | 11.67° C | 99% | 1018.3 hPa | 0 mm | - | 31 W/m² | - |
| 1788261003 | 11.67° C | 99% | 1018.4 hPa | 0 mm | - | 29 W/m² | - |
| 1788260699 | 11.67° C | 99% | 1018.3 hPa | 0 mm | - | 27 W/m² | - |
| 1788260394 | 11.67° C | 99% | 1018.2 hPa | 0 mm | - | 23 W/m² | - |
| 1788260090 | 11.67° C | 99% | 1018.3 hPa | 0 mm | - | 22 W/m² | - |
| 1788259790 | 11.67° C | 99% | 1018.2 hPa | 0 mm | - | 23 W/m² | - |
| 1788259486 | 11.67° C | 99% | 1018.3 hPa | 0 mm | - | 28 W/m² | - |
| 1788259180 | 11.11° C | 99% | 1018.1 hPa | 0 mm | - | 23 W/m² | - |
| 1788258875 | 11.67° C | 99% | 1017.9 hPa | 0 mm | - | 17 W/m² | - |
| 1788258570 | 11.67° C | 99% | 1018 hPa | 0 mm | - | 15 W/m² | - |
| 1788258265 | 11.11° C | 99% | 1017.8 hPa | 0 mm | - | 17 W/m² | - |
| 1788257960 | 10.56° C | 99% | 1017.7 hPa | 0 mm | - | 11 W/m² | - |
| 1788257655 | 10.56° C | 99% | 1017.8 hPa | 0 mm | - | 5 W/m² | - |
| 1788257354 | 10.56° C | 99% | 1017.9 hPa | 0 mm | - | 3 W/m² | - |
| 1788257049 | 10.56° C | 99% | 1017.8 hPa | 0 mm | - | 2 W/m² | - |
| 1788256743 | 10.56° C | 99% | 1017.9 hPa | 0 mm | - | 1 W/m² | - |
| 1788256441 | 10.56° C | 99% | 1017.9 hPa | 0 mm | - | 0 W/m² | - |
| 1788256134 | 10.56° C | 99% | 1018 hPa | 0 mm | - | 0 W/m² | - |
| 1788255829 | 10.56° C | 99% | 1017.9 hPa | 0 mm | - | 0 W/m² | - |
| 1788255524 | 10.56° C | 99% | 1017.9 hPa | 0 mm | - | 0 W/m² | - |
| 1788255223 | 10° C | 99% | 1017.9 hPa | 0 mm | - | 0 W/m² | - |
| 1788254919 | 10° C | 99% | 1017.8 hPa | 0 mm | - | 0 W/m² | - |
| 1788254615 | 10° C | 99% | 1017.8 hPa | 0 mm | - | 0 W/m² | - |
| 1788254310 | 10° C | 99% | 1018 hPa | 0 mm | - | 0 W/m² | - |
* Rain latest hour (hover to see other rain measurements)
** Current wind speed in m/s (hover to see current wind gust speed)